Douglas Bisbee, AZ

12:16 PM MST on August 18, 2017 (GMT -0700)
Bisbee Douglas International

Weather History for KDUG - May, 2009

Change the Weather History Date:

Friday, May 8, 2009

  Actual Average Record
Temperature  
Mean Temperature 77 °F 68 °F  
Max Temperature 98 °F 86 °F 98 °F (1989)
Min Temperature 56 °F 50 °F 30 °F (1964)
Degree Days  
Heating Degree Days 0 1  
Month to date heating degree days 0 11  
Since 1 July heating degree days 2095 2512  
Cooling Degree Days 12 4  
Month to date cooling degree days 61 25  
Year to date cooling degree days 101 55  
Growing Degree Days 26 (Base 50)    
Moisture  
Dew Point 22 °F    
Average Humidity 16    
Maximum Humidity 26    
Minimum Humidity 6    
Precipitation  
Precipitation 0.00 in 0.01 in 0.05 in (2007)
Month to date precipitation 0.00 0.07  
Year to date precipitation 0.88 2.19  
Snow  
Snow 0.00 in - - ()
Month to date snowfall 0.0  
Snow Depth 0.00 in    
Sea Level Pressure  
Sea Level Pressure 29.72 in    
Wind  
Wind Speed 7 mph (WNW)    
Max Wind Speed 22 mph    
Max Gust Speed 30 mph    
Visibility 10 miles    
Events      
T = Trace of Precipitation, MM = Missing Value Source: NWS Daily Summary

Daily Weather History Graph

Daily Weather History Graph

Search for Another Location

Airport or City:

Trip Planner

Search our weather history database for the weather conditions in past years. The results will help you decide how hot, cold, wet, or windy it might be!

Date:

Astronomy

May. 08, 2009 Rise Set
Actual Time 5:26 AM MST 7:03 PM MST
Civil Twilight 5:00 AM MST 7:29 PM MST
Nautical Twilight 4:29 AM MST 8:01 PM MST
Astronomical Twilight 3:56 AM MST 8:34 PM MST
Moon 7:02 PM MST (5/8) 4:45 AM MST (5/8)
Length of Visible Light 14h 28m
Length of Day
13h 36m
Full, 100% of the Moon is Illuminated
May 8
Full
May 8
Full
May 17
Last Quarter
May 24
New
May 30
First Quarter

Hourly Weather History & Observations

Time (MST) Temp. Dew Point Humidity Pressure Visibility Wind Dir Wind Speed Gust Speed Precip Events Conditions
12:56 AM 68.0 °F 24.1 °F 19% 29.73 in 10.0 mi North 10.4 mph - N/A   Clear
2:56 AM 61.0 °F 23.0 °F 23% 29.73 in 10.0 mi NNW 8.1 mph - N/A   Clear
3:56 AM 60.1 °F 25.0 °F 26% 29.73 in 10.0 mi NE 3.5 mph - N/A   Clear
5:56 AM 57.9 °F 23.0 °F 26% 29.76 in 10.0 mi Calm Calm - N/A   Clear
6:56 AM 66.0 °F 25.0 °F 21% 29.78 in 10.0 mi Calm Calm - N/A   Clear
7:56 AM 75.9 °F 27.0 °F 16% 29.78 in 10.0 mi Calm Calm - N/A   Clear
8:56 AM 80.1 °F 28.0 °F 15% 29.79 in 10.0 mi Calm Calm - N/A   Clear
9:56 AM 86.0 °F 27.0 °F 12% 29.78 in 10.0 mi Calm Calm - N/A   Clear
10:56 AM 89.1 °F 27.0 °F 11% 29.76 in 10.0 mi SSE 4.6 mph - N/A   Clear
11:56 AM 93.9 °F 18.0 °F 6% 29.73 in 10.0 mi WSW 13.8 mph 23.0 mph N/A   Clear
12:56 PM 93.9 °F 19.0 °F 7% 29.71 in 10.0 mi West 9.2 mph 19.6 mph N/A   Clear
1:56 PM 96.1 °F 19.0 °F 6% 29.70 in 10.0 mi WSW 9.2 mph 21.9 mph N/A   Clear
2:56 PM 96.1 °F 19.0 °F 6% 29.67 in 10.0 mi SW 9.2 mph 25.3 mph N/A   Clear
3:56 PM 96.1 °F 19.9 °F 6% 29.66 in 10.0 mi SW 11.5 mph 29.9 mph N/A   Clear
4:56 PM 95.0 °F 19.0 °F 6% 29.66 in 10.0 mi WNW 8.1 mph 17.3 mph N/A   Clear
5:56 PM 95.0 °F 19.9 °F 7% 29.66 in 10.0 mi West 13.8 mph 19.6 mph N/A   Clear
6:56 PM 88.0 °F 19.0 °F 8% 29.67 in 10.0 mi West 9.2 mph - N/A   Clear
7:56 PM 84.0 °F 21.0 °F 10% 29.68 in 10.0 mi WSW 9.2 mph - N/A   Clear
8:56 PM 82.0 °F 18.0 °F 9% 29.70 in 10.0 mi West 10.4 mph - N/A   Clear
9:56 PM 79.0 °F 18.0 °F 10% 29.72 in 10.0 mi NW 8.1 mph - N/A   Clear
10:56 PM 69.1 °F 19.0 °F 15% 29.74 in 10.0 mi NNE 9.2 mph - N/A   Clear
11:56 PM 68.0 °F 21.0 °F 17% 29.74 in 10.0 mi NNE 4.6 mph - N/A   Clear